Weather History for SAZS - November, 2012

Change the Weather History Date:

Saturday, November 3, 2012

  Actual Average Record
Temperature  
Mean Temperature 52 °F -  
Max Temperature 62 °F 63 °F 77 °F (2003)
Min Temperature 42 °F 38 °F 26 °F (2004)
Degree Days  
Heating Degree Days 13    
Growing Degree Days 2 (Base 50)    
Moisture  
Dew Point 25 °F    
Average Humidity 39    
Maximum Humidity 71    
Minimum Humidity 7    
Precipitation  
Precipitation 0.00 in 0.03 in - ()
Sea Level Pressure  
Sea Level Pressure 30.04 in    
Wind  
Wind Speed 17 mph ()    
Max Wind Speed 26 mph    
Max Gust Speed -    
Visibility 6.1 miles    
Events      
Averages and records for this station are not official NWS values.
T = Trace of Precipitation, MM = Missing Value Source: Averaged Metar Reports

Daily Weather History Graph

Daily Weather History Graph

Search for Another Location

Airport or City:

Trip Planner

Search our weather history database for the weather conditions in past years. The results will help you decide how hot, cold, wet, or windy it might be!

Date:

Astronomy

Nov. 03, 2012 Rise Set
Actual Time 6:28 AM ART 8:28 PM ART
Civil Twilight 5:58 AM ART 8:58 PM ART
Nautical Twilight 5:21 AM ART 9:35 PM ART
Astronomical Twilight 4:42 AM ART 10:15 PM ART
Moon 12:00 AM ART 9:46 AM ART
Length of Visible Light 15h 00m
Length of Day
14h 00m
Waning Gibbous, 81% of the Moon is Illuminated
Nov 3
Waning Gibbous
Nov 6
Last Quarter
Nov 13
New
Nov 20
First Quarter
Nov 28
Full

Hourly Weather History & Observations

Time (ART) Temp. Windchill Dew Point Humidity Pressure Visibility Wind Dir Wind Speed Gust Speed Precip Events Conditions
12:00 AM 48.2 °F - 37.4 °F 66% 30.04 in 6.2 mi WNW 23.0 mph - N/A   Scattered Clouds
1:00 AM 46.4 °F 40.4 °F 37.4 °F 71% 30.04 in 6.2 mi NW 13.8 mph - N/A   Scattered Clouds
2:00 AM 46.4 °F 39.0 °F 37.4 °F 71% 30.04 in 6.2 mi NW 19.6 mph - N/A   Partly Cloudy
3:00 AM 46.4 °F 39.5 °F 37.4 °F 71% 30.04 in - NW 17.3 mph - N/A   Clear
4:00 AM 44.6 °F 37.4 °F 35.6 °F 71% 30.04 in - NW 16.1 mph - N/A   Clear
5:00 AM 44.6 °F 39.7 °F 33.8 °F 66% 30.04 in - NW 9.2 mph - N/A   Clear
6:00 AM 42.8 °F 35.1 °F 33.8 °F 70% 30.04 in - NW 16.1 mph - N/A   Clear
7:00 AM 42.8 °F 36.6 °F 32.0 °F 66% 30.04 in - NW 11.5 mph - N/A   Clear
8:00 AM 44.6 °F 36.4 °F 28.4 °F 53% 30.04 in - NW 20.7 mph - N/A   Clear
9:00 AM 49 °F - 24 °F 25%  in 6 mi NW 21.9 mph - -   Clear
9:00 AM 48.2 °F - 24.8 °F 40% 30.04 in - NW 21.9 mph - N/A   Clear
10:00 AM 51.8 °F - 19.4 °F 28% 30.06 in - NW 23.0 mph - N/A   Clear
11:00 AM 53.6 °F - 17.6 °F 24% 30.06 in - NW 20.7 mph - N/A   Clear
12:00 PM 57.2 °F - 14.0 °F 18% 30.06 in - WNW 18.4 mph - N/A   Clear
1:00 PM 59.0 °F - 10.4 °F 15% 30.06 in - WNW 18.4 mph - N/A   Clear
2:00 PM 60.8 °F - 12.2 °F 15% 30.04 in - WNW 19.6 mph - N/A   Clear
3:00 PM 62 °F - 14 °F 7%  in 6 mi WNW 21.9 mph - -   Clear
3:00 PM 62.6 °F - 14.0 °F 15% 30.04 in - WNW 21.9 mph - N/A   Clear
4:00 PM 62.6 °F - 17.6 °F 18% 30.04 in 6.2 mi WNW 26.5 mph - N/A   Partly Cloudy
5:00 PM 60.8 °F - 15.8 °F 17% 30.01 in 6.2 mi NW 23.0 mph - N/A   Partly Cloudy
6:00 PM 59.0 °F - 21.2 °F 23% 30.01 in 6.2 mi NW 24.2 mph - N/A   Partly Cloudy
7:00 PM 57.2 °F - 23.0 °F 27% 30.04 in 6.2 mi NW 18.4 mph - N/A   Partly Cloudy
8:00 PM 55.4 °F - 24.8 °F 31% 30.04 in 6.2 mi NW 16.1 mph - N/A   Partly Cloudy
9:00 PM 51 °F - 26 °F 25%  in 6 mi NW 17.3 mph - -   Clear
9:00 PM 50.0 °F - 26.6 °F 40% 30.04 in - NW 17.3 mph - N/A   Clear
10:00 PM 50.0 °F - 26.6 °F 40% 30.06 in - NW 16.1 mph - N/A   Clear
11:00 PM 48.2 °F - 26.6 °F 43% 30.09 in - NW 16.1 mph - N/A   Clear